Kaneohe MCBH, HI

10:34 PM HST on May 26, 2017 (GMT -1000)
Kaneohe Bay Marine Corps Air Facility

Weather History for PHNG - June, 2013

Change the Weather History Date:

Monday, June 3, 2013

  Actual Average Record
Temperature  
Mean Temperature 78 °F -  
Max Temperature 84 °F 78 °F 86 °F (2012)
Min Temperature 71 °F 71 °F 69 °F (2011)
Cooling Degree Days 12    
Growing Degree Days 28 (Base 50)    
Moisture  
Dew Point 66 °F    
Average Humidity 70    
Maximum Humidity 92    
Minimum Humidity 56    
Precipitation  
Precipitation 0.00 in - - ()
Sea Level Pressure  
Sea Level Pressure 30.08 in    
Wind  
Wind Speed 10 mph (ENE)    
Max Wind Speed 14 mph    
Max Gust Speed 23 mph    
Visibility 10 miles    
Events      
Averages and records for this station are not official NWS values.
T = Trace of Precipitation, MM = Missing Value Source: NWS Daily Summary

Daily Weather History Graph

Daily Weather History Graph

Search for Another Location

Airport or City:

Trip Planner

Search our weather history database for the weather conditions in past years. The results will help you decide how hot, cold, wet, or windy it might be!

Date:

Astronomy

Jun. 03, 2013 Rise Set
Actual Time 5:48 AM HST 7:10 PM HST
Civil Twilight 5:23 AM HST 7:35 PM HST
Nautical Twilight 4:54 AM HST 8:04 PM HST
Astronomical Twilight 4:23 AM HST 8:35 PM HST
Moon 2:23 AM HST (6/3) 3:17 PM HST (6/3)
Length of Visible Light 14h 11m
Length of Day
13h 22m
Waning Crescent, 20% of the Moon is Illuminated
Jun 3
Waning Crescent
Jun 8
New
Jun 16
First Quarter
Jun 23
Full
Jun 29
Last Quarter

Hourly Weather History & Observations

Time (HST) Temp. Heat Index Dew Point Humidity Pressure Visibility Wind Dir Wind Speed Gust Speed Precip Events Conditions
12:57 AM 75.2 °F - 64.9 °F 70% 30.09 in 10.0 mi ENE 9.2 mph 18.4 mph N/A   Mostly Cloudy
1:57 AM 71.6 °F - 66.0 °F 82% 30.07 in 10.0 mi ENE 9.2 mph - N/A   Scattered Clouds
2:57 AM 71.6 °F - 66.0 °F 82% 30.06 in 10.0 mi ENE 8.1 mph - N/A   Partly Cloudy
3:57 AM 73.4 °F - 62.1 °F 68% 30.06 in 10.0 mi Variable 5.8 mph - N/A   Mostly Cloudy
4:57 AM 71.6 °F - 69.1 °F 92% 30.07 in 10.0 mi East 9.2 mph 16.1 mph N/A   Mostly Cloudy
5:57 AM 73.4 °F - 66.9 °F 80% 30.08 in 10.0 mi East 9.2 mph 18.4 mph N/A   Scattered Clouds
6:57 AM 75.2 °F - 68.0 °F 78% 30.09 in 10.0 mi ENE 8.1 mph 21.9 mph 0.00 in   Mostly Cloudy
7:57 AM 75.2 °F - 66.9 °F 75% 30.11 in 10.0 mi ENE 10.4 mph 20.7 mph N/A   Mostly Cloudy
8:57 AM 77.0 °F - 66.9 °F 71% 30.12 in 10.0 mi ENE 12.7 mph 21.9 mph N/A   Partly Cloudy
9:57 AM 78.8 °F - 66.0 °F 65% 30.13 in 10.0 mi ENE 13.8 mph 23.0 mph N/A   Scattered Clouds
10:57 AM 80.6 °F 82.4 °F 64.9 °F 59% 30.13 in 10.0 mi East 11.5 mph 20.7 mph N/A   Overcast
11:57 AM 80.6 °F 82.7 °F 66.0 °F 61% 30.11 in 10.0 mi ENE 13.8 mph 20.7 mph N/A   Mostly Cloudy
12:57 PM 82.4 °F 84.8 °F 66.9 °F 59% 30.09 in 10.0 mi ENE 10.4 mph 19.6 mph N/A   Mostly Cloudy
1:57 PM 82.4 °F 85.4 °F 68.0 °F 62% 30.07 in 10.0 mi ENE 13.8 mph 20.7 mph N/A   Clear
2:57 PM 84.2 °F 87.9 °F 69.1 °F 60% 30.05 in 10.0 mi ENE 13.8 mph 21.9 mph N/A   Mostly Cloudy
3:57 PM 84.2 °F 86.8 °F 66.9 °F 56% 30.04 in 10.0 mi ENE 12.7 mph 23.0 mph N/A   Scattered Clouds
4:57 PM 82.4 °F 84.8 °F 66.9 °F 59% 30.04 in 10.0 mi East 13.8 mph 19.6 mph 0.00 in   Overcast
5:57 PM 80.6 °F 82.7 °F 66.0 °F 61% 30.05 in 10.0 mi ENE 11.5 mph 19.6 mph N/A   Overcast
6:57 PM 78.8 °F - 66.0 °F 65% 30.06 in 10.0 mi ENE 8.1 mph - N/A   Overcast
7:57 PM 77.0 °F - 66.0 °F 69% 30.07 in 10.0 mi ENE 8.1 mph 16.1 mph N/A   Overcast
8:57 PM 75.2 °F - 64.9 °F 70% 30.07 in 10.0 mi East 13.8 mph 20.7 mph N/A   Overcast
9:57 PM 75.2 °F - 66.9 °F 75% 30.08 in 10.0 mi ENE 11.5 mph 17.3 mph N/A   Overcast
10:57 PM 75.2 °F - 66.0 °F 73% 30.08 in - East 8.1 mph - N/A   Partly Cloudy
11:57 PM 73.4 °F - 66.9 °F 80% 30.06 in 10.0 mi East 9.2 mph 18.4 mph N/A   Mostly Cloudy